User: anonymous   Login
Location: Unspecified
(0.0000°N, 0.0000°E)
Time: 17:18:16
(UTC+00:00)
Language:

CHUBUSAT 1 - Orbit

View from above orbital plane
View from above orbital plane
View from above satellite
View from above satellite

Ground track
Ground track

The orbit data is extracted from the following two-line orbital elements,

1 40300U 14070C   21337.16015485  .00002290  00000-0  97543-4 0  9990
2 40300  97.2216  34.4823 0020293 128.6485 287.8765 15.23767208392749
Epoch (UTC): 03 December 2021 03:50:37
Eccentricity: 0.0020293
inclination: 97.2216°
perigee height: 480 km
apogee height: 508 km
right ascension of ascending node: 34.4823°
argument of perigee: 128.6485°
revolutions per day: 15.23767208
mean anomaly at epoch: 287.8765°
orbit number at epoch: 39274

The dashed part of the orbit path shows where the satellite is in the earth's shadow,  

DLR